Temp
68 67 66 66 67 68 68 68 69 69 69 70 70 71 71 72 74 72 72 71 69 67 67 66 67 66 66 66 65 66 66 66 65 65 66 65 63 65 65 66 66 65
67 67 67 67 66 67 67 67 68 69 69 69 70 71 71 72 73 73 72 70 70 68 68 67 67 67 66 65 65 64 64 65 65 67 65 64 64 65 65 66 66 66
67 67 67 66 66 66 66 67 67 68 69 70 70 70 71 72 72 72 72 71 70 68 67 67 67 66 66 66 65 65 65 65 65 65 65 65 65 64 65 66 65 65
67 67 67 67 66 66 66 66 67 67 67 67 68 69 70 70 71 71 71 72 70 69 69 68 68 67 67 67 65 63 64 65 65 64 64 65 65 66 65 65 64 64
66 67 67 67 66 66 65 65 66 66 66 66 67 68 68 68 69 70 70 71 71 70 69 68 69 68 68 67 66 64 64 64 65 65 65 65 65 65 65 64 64 64
67 68 68 67 66 65 64 65 65 65 66 66 66 67 67 68 68 69 69 69 70 70 68 67 66 65 66 66 65 65 65 63 64 65 65 64 64 64 64 64 64 64
65 65 65 66 66 66 64 64 64 64 65 66 67 66 67 67 67 68 68 69 70 69 68 67 65 64 65 64 64 64 65 65 65 65 64 63 64 64 65 64 64 64
64 65 65 66 65 64 64 64 64 63 64 64 63 65 66 67 68 68 68 68 68 68 67 67 66 66 65 63 63 64 64 64 65 64 64 64 64 64 65 65 63 63
64 64 65 64 64 64 63 63 63 63 64 63 63 63 64 64 64 65 65 67 68 67 68 67 66 65 65 64 64 64 63 63 64 65 64 64 63 64 64 64 63 63
63 63 64 64 63 63 62 62 62 62 63 62 62 62 61 62 63 62 61 62 63 66 67 67 66 63 64 64 64 64 64 64 64 65 65 64 64 64 64 64 63 62
62 63 62 62 62 62 62 62 62 62 62 62 61 60 60 60 59 60 59 60 60 63 65 65 65 64 64 64 64 64 64 64 63 64 65 64 63 64 64 64 63 63
61 62 61 61 61 61 61 62 62 61 61 60 60 59 58 58 57 57 57 58 59 61 63 63 62 62 60 58 60 63 64 63 63 63 64 64 63 63 64 64 63 63
61 61 61 61 61 61 61 62 61 60 60 59 60 59 57 56 56 55 56 56 57 58 60 56 52 51 49 49 50 53 59 63 63 63 63 64 64 64 64 63 63 63
61 61 61 61 61 61 61 61 60 60 59 59 59 57 57 56 55 54 54 55 54 54 56 54 51 49 48 46 46 48 50 56 62 63 63 63 63 64 64 63 63 63
61 61 61 61 61 61 60 60 60 59 59 59 58 57 56 56 56 54 53 53 52 52 52 53 49 47 46 44 43 44 46 51 56 60 62 62 62 62 63 63 63 61
61 60 61 60 60 59 59 60 59 59 59 58 58 58 57 57 56 55 54 52 51 51 50 51 48 47 45 43 43 43 44 46 51 55 60 62 62 62 63 63 63 62
61 61 60 59 59 59 58 58 58 58 58 58 58 57 56 56 55 54 53 52 51 50 49 49 48 46 42 40 40 41 42 44 46 51 57 60 62 62 62 62 63 64
61 61 60 59 59 58 58 58 57 57 56 57 56 56 57 56 55 54 53 53 51 50 49 48 47 45 41 41 40 40 41 42 44 49 54 57 60 61 62 61 62 63
61 61 60 60 59 59 58 57 57 56 55 55 55 56 56 55 55 54 53 53 52 50 49 48 47 43 41 41 40 40 40 41 43 48 53 56 58 60 61 62 62 61
61 60 59 59 59 58 58 57 56 55 55 55 55 55 54 54 54 53 53 53 52 50 49 49 47 44 41 41 40 39 39 40 45 49 54 56 58 59 60 61 61 60
60 60 59 58 58 58 57 57 56 55 55 55 55 54 53 53 53 52 52 52 51 51 50 48 48 43 41 40 40 40 39 41 47 51 54 57 58 60 60 61 61 62
59 58 58 59 58 58 57 56 55 54 54 55 54 54 54 54 54 53 52 51 51 50 49 48 48 43 41 40 40 40 40 44 46 49 53 56 57 60 60 61 61 61
59 58 57 57 58 57 56 55 55 55 54 55 54 54 53 53 52 52 52 51 50 50 48 47 47 44 41 40 40 40 41 44 46 49 52 54 55 56 58 61 62 61
59 58 57 57 57 56 55 55 55 56 55 55 54 54 53 53 53 52 52 51 50 49 48 46 46 45 41 41 40 40 42 43 45 45 46 48 52 54 56 59 61 59
58 58 57 56 56 56 55 54 54 54 55 56 55 55 54 54 53 52 51 51 51 49 49 47 46 45 42 40 40 40 42 43 43 43 43 45 50 49 50 51 52 50
58 58 57 57 56 56 55 54 54 54 54 54 55 55 55 54 53 52 51 51 51 50 49 47 46 45 44 40 41 40 40 43 43 41 41 43 45 46 46 47 47 46
MSLP
1017.26 1017.18 1017.14 1017.02 1016.86 1016.62 1016.42 1016.30 1016.10 1015.98 1015.74 1015.46 1015.30 1014.98 1014.74 1014.38 1014.10 1014.18 1014.26 1014.34 1014.50 1014.62 1014.54 1014.54 1014.62 1014.66 1014.70 1014.86 1015.18 1015.14 1014.58 1014.58 1014.86 1014.82 1014.82 1014.86 1015.02 1015.02 1015.10 1015.06 1015.14 1015.18
1017.26 1017.18 1017.14 1017.06 1016.98 1016.78 1016.62 1016.50 1016.22 1015.98 1015.74 1015.46 1015.26 1015.02 1014.66 1014.34 1014.06 1013.98 1014.06 1014.14 1014.06 1014.18 1014.18 1014.14 1014.14 1014.22 1014.38 1014.50 1014.74 1015.18 1014.74 1014.42 1014.46 1014.38 1014.54 1014.62 1014.58 1014.74 1014.82 1014.70 1014.78 1014.82
1017.34 1017.22 1017.18 1017.18 1017.14 1017.02 1016.86 1016.62 1016.42 1016.06 1015.74 1015.38 1015.10 1014.94 1014.74 1014.42 1014.22 1013.98 1013.90 1013.86 1013.90 1013.94 1013.94 1013.90 1013.90 1013.98 1014.02 1014.18 1014.58 1014.66 1014.34 1014.18 1014.18 1014.22 1014.38 1014.26 1014.18 1014.42 1014.34 1014.38 1014.50 1014.58
1017.58 1017.42 1017.26 1017.22 1017.18 1017.22 1017.06 1016.82 1016.50 1016.22 1015.98 1015.82 1015.58 1015.26 1015.02 1014.70 1014.42 1014.18 1013.98 1013.82 1013.74 1013.78 1013.78 1013.78 1013.70 1013.74 1013.82 1013.78 1013.90 1014.18 1014.26 1014.06 1013.78 1014.06 1014.14 1013.86 1013.78 1013.90 1013.98 1014.14 1014.30 1014.46
1017.78 1017.58 1017.46 1017.38 1017.38 1017.38 1017.30 1017.06 1016.82 1016.54 1016.34 1016.06 1015.74 1015.50 1015.26 1015.02 1014.78 1014.46 1014.10 1013.90 1013.74 1013.66 1013.66 1013.74 1013.58 1013.66 1013.66 1013.58 1013.62 1013.74 1013.62 1013.50 1013.30 1013.42 1013.54 1013.50 1013.38 1013.58 1013.70 1014.06 1014.18 1014.22
1017.90 1017.70 1017.62 1017.66 1017.58 1017.46 1017.42 1017.34 1017.18 1016.94 1016.58 1016.26 1016.02 1015.70 1015.46 1015.22 1014.98 1014.66 1014.42 1014.18 1013.86 1013.78 1013.86 1013.98 1014.18 1014.26 1013.90 1013.70 1013.66 1013.58 1013.46 1013.54 1013.38 1013.26 1013.26 1013.22 1013.22 1013.26 1013.50 1013.70 1013.82 1013.86
1018.26 1018.10 1018.06 1017.90 1017.66 1017.58 1017.62 1017.58 1017.46 1017.26 1016.98 1016.58 1016.14 1015.90 1015.62 1015.42 1015.18 1014.94 1014.66 1014.42 1014.10 1013.94 1013.98 1014.10 1014.10 1013.98 1013.78 1013.98 1014.10 1013.82 1013.42 1013.26 1013.06 1013.02 1013.10 1013.18 1013.10 1012.94 1012.90 1013.22 1013.34 1013.42
1018.54 1018.42 1018.26 1018.02 1017.98 1017.86 1017.78 1017.70 1017.58 1017.42 1017.18 1016.90 1016.70 1016.34 1015.94 1015.58 1015.30 1015.02 1014.78 1014.54 1014.34 1014.14 1013.90 1013.82 1013.86 1013.66 1013.50 1013.46 1013.42 1013.34 1013.34 1013.26 1013.06 1012.86 1012.90 1012.82 1012.74 1012.70 1012.58 1012.58 1012.90 1013.14
1018.70 1018.62 1018.46 1018.34 1018.30 1018.10 1018.10 1018.02 1017.82 1017.62 1017.38 1017.22 1016.98 1016.78 1016.46 1016.18 1015.86 1015.58 1015.26 1014.82 1014.42 1014.18 1013.82 1013.70 1013.70 1013.78 1013.58 1013.34 1013.22 1013.10 1013.06 1013.22 1012.98 1012.62 1012.58 1012.58 1012.50 1012.38 1012.26 1012.26 1012.46 1012.74
1019.06 1018.94 1018.74 1018.58 1018.46 1018.42 1018.38 1018.26 1018.10 1017.90 1017.62 1017.46 1017.34 1017.18 1016.98 1016.70 1016.46 1016.26 1015.98 1015.66 1015.14 1014.50 1013.98 1013.74 1013.58 1013.58 1013.42 1013.10 1012.82 1012.66 1012.58 1012.70 1012.54 1012.34 1012.18 1012.18 1012.18 1012.14 1012.06 1012.02 1011.98 1012.30
1019.30 1019.14 1019.02 1018.90 1018.86 1018.70 1018.58 1018.38 1018.22 1018.10 1017.90 1017.78 1017.74 1017.62 1017.50 1017.30 1017.10 1016.78 1016.46 1016.10 1015.70 1015.06 1014.38 1013.94 1013.66 1013.54 1013.54 1013.22 1012.94 1012.74 1012.58 1012.50 1012.58 1012.46 1012.14 1012.06 1012.10 1011.98 1011.86 1011.90 1011.90 1011.94
1019.66 1019.58 1019.50 1019.34 1019.22 1019.06 1018.82 1018.62 1018.46 1018.38 1018.30 1018.10 1018.06 1018.02 1017.90 1017.82 1017.66 1017.34 1017.02 1016.62 1016.10 1015.46 1014.82 1014.46 1014.14 1014.06 1014.26 1014.18 1013.58 1012.78 1012.26 1012.02 1012.02 1012.10 1012.02 1011.98 1012.02 1011.82 1011.66 1011.78 1011.86 1011.82
1020.02 1019.98 1019.90 1019.74 1019.58 1019.38 1019.18 1018.94 1018.78 1018.78 1018.70 1018.54 1018.34 1018.30 1018.26 1018.14 1018.06 1017.86 1017.50 1017.22 1016.78 1016.10 1015.42 1015.74 1015.90 1015.70 1015.50 1015.26 1014.86 1014.18 1013.06 1012.02 1011.86 1011.74 1011.66 1011.70 1011.74 1011.62 1011.62 1011.50 1011.70 1011.78
1020.22 1020.22 1020.14 1020.02 1019.82 1019.62 1019.46 1019.30 1019.18 1019.14 1019.10 1018.90 1018.70 1018.66 1018.58 1018.46 1018.42 1018.26 1018.06 1017.74 1017.42 1017.02 1016.34 1016.26 1016.38 1016.30 1016.14 1015.94 1015.62 1015.06 1014.18 1013.02 1011.90 1011.50 1011.30 1011.30 1011.38 1011.50 1011.38 1011.38 1011.46 1011.66
1020.42 1020.34 1020.26 1020.18 1019.98 1019.82 1019.70 1019.62 1019.54 1019.42 1019.30 1019.14 1019.02 1018.98 1018.94 1018.82 1018.70 1018.62 1018.42 1018.06 1017.86 1017.54 1017.06 1016.74 1017.02 1017.10 1017.06 1017.02 1016.50 1015.58 1014.90 1013.86 1012.82 1011.86 1011.38 1011.22 1011.22 1011.26 1011.14 1011.06 1011.10 1011.42
1020.66 1020.70 1020.62 1020.50 1020.38 1020.30 1020.18 1019.94 1019.78 1019.66 1019.46 1019.30 1019.18 1019.14 1019.22 1019.06 1018.90 1018.82 1018.66 1018.46 1018.30 1017.98 1017.66 1017.22 1017.50 1017.46 1017.46 1017.14 1016.82 1016.46 1015.54 1014.62 1013.58 1012.58 1011.58 1011.02 1010.90 1010.90 1010.86 1010.98 1010.82 1010.82
1020.86 1020.78 1020.78 1020.78 1020.70 1020.70 1020.62 1020.46 1020.30 1020.02 1019.82 1019.62 1019.42 1019.30 1019.22 1019.10 1019.06 1019.02 1018.86 1018.78 1018.70 1018.46 1018.18 1017.82 1017.82 1017.94 1017.74 1017.14 1016.54 1016.06 1015.58 1014.94 1014.26 1013.14 1012.10 1011.30 1010.82 1010.74 1010.74 1010.70 1010.58 1010.42
1020.94 1020.94 1020.86 1020.82 1020.86 1020.90 1020.86 1020.78 1020.66 1020.46 1020.30 1020.06 1019.86 1019.58 1019.34 1019.22 1019.22 1019.14 1019.06 1018.98 1018.86 1018.78 1018.62 1018.34 1018.10 1018.14 1017.70 1017.18 1016.58 1015.98 1015.54 1015.10 1014.34 1013.38 1012.26 1011.42 1010.82 1010.58 1010.38 1010.30 1010.30 1010.14
1021.06 1021.06 1020.98 1020.90 1020.90 1020.94 1020.98 1020.94 1020.86 1020.82 1020.70 1020.54 1020.30 1020.02 1019.78 1019.54 1019.38 1019.26 1019.18 1019.10 1019.10 1019.02 1018.74 1018.46 1018.34 1018.22 1017.78 1017.22 1016.62 1016.02 1015.34 1014.78 1014.06 1013.22 1012.26 1011.50 1010.94 1010.54 1010.26 1010.02 1009.90 1009.82
1021.42 1021.34 1021.26 1021.26 1021.22 1021.14 1021.02 1021.02 1021.06 1021.02 1020.90 1020.74 1020.54 1020.34 1020.18 1020.02 1019.78 1019.62 1019.42 1019.30 1019.22 1019.06 1018.94 1018.82 1018.66 1018.46 1017.98 1017.42 1016.78 1016.06 1015.26 1014.58 1013.74 1012.86 1011.94 1011.26 1010.82 1010.42 1010.18 1010.06 1009.90 1009.82
1021.74 1021.50 1021.38 1021.46 1021.46 1021.34 1021.22 1021.18 1021.22 1021.22 1021.06 1020.86 1020.66 1020.58 1020.42 1020.26 1020.10 1019.94 1019.78 1019.62 1019.54 1019.42 1019.22 1019.02 1018.86 1018.78 1018.30 1017.70 1016.98 1016.18 1015.26 1014.26 1013.38 1012.58 1011.82 1011.26 1010.74 1010.30 1009.94 1009.98 1009.90 1009.74
1022.10 1021.94 1021.78 1021.54 1021.46 1021.46 1021.42 1021.34 1021.30 1021.34 1021.26 1021.06 1020.86 1020.74 1020.66 1020.50 1020.38 1020.26 1020.26 1020.10 1019.86 1019.74 1019.58 1019.34 1019.06 1018.94 1018.62 1018.06 1017.42 1016.54 1015.50 1014.42 1013.78 1012.94 1011.98 1011.30 1010.78 1010.30 1009.86 1009.62 1009.58 1009.62
1022.34 1022.26 1022.18 1021.94 1021.70 1021.66 1021.66 1021.62 1021.42 1021.30 1021.30 1021.14 1021.02 1020.86 1020.82 1020.74 1020.66 1020.58 1020.58 1020.42 1020.26 1020.10 1020.02 1019.82 1019.46 1019.18 1018.90 1018.38 1017.74 1017.02 1015.86 1015.10 1014.30 1013.42 1012.54 1011.78 1011.34 1010.90 1010.30 1009.66 1009.42 1009.42
1022.54 1022.54 1022.50 1022.30 1022.10 1022.06 1022.18 1022.22 1021.94 1021.62 1021.38 1021.22 1021.18 1021.02 1020.94 1020.90 1020.90 1020.86 1020.74 1020.62 1020.54 1020.38 1020.26 1020.18 1019.90 1019.50 1019.22 1018.74 1018.18 1017.58 1016.94 1016.10 1015.30 1014.66 1013.90 1013.10 1012.06 1011.38 1010.78 1009.94 1009.42 1009.54
1022.94 1022.90 1022.82 1022.74 1022.62 1022.54 1022.66 1022.66 1022.42 1022.14 1021.82 1021.54 1021.34 1021.14 1021.06 1021.02 1021.10 1021.06 1020.98 1020.78 1020.66 1020.54 1020.38 1020.34 1020.18 1019.78 1019.50 1019.10 1018.54 1017.98 1017.34 1016.74 1016.10 1015.50 1014.78 1013.82 1012.74 1012.38 1011.94 1011.62 1011.18 1011.06
1022.94 1022.94 1022.82 1022.82 1022.82 1022.82 1022.90 1022.94 1022.86 1022.58 1022.26 1021.94 1021.66 1021.46 1021.26 1021.22 1021.26 1021.26 1021.14 1020.90 1020.74 1020.58 1020.46 1020.42 1020.38 1020.10 1019.82 1019.50 1018.94 1018.34 1017.90 1017.30 1016.66 1016.10 1015.62 1014.82 1014.10 1013.70 1012.94 1012.50 1012.34 1012.06
Wind_Speed
7 7 7 8 8 8 8 8 7 8 7 8 8 8 8 8 6 4 3 1 2 4 6 6 6 6 7 8 7 9 8 7 7 8 9 9 9 12 12 12 11 10
5 4 5 6 6 7 8 9 10 8 8 8 8 9 9 8 7 5 4 3 3 4 5 6 6 7 7 8 6 8 8 8 10 9 9 11 11 12 13 14 13 11
8 6 5 7 7 9 9 9 9 10 9 8 8 8 9 9 9 7 6 5 5 4 4 5 6 5 6 7 7 8 9 9 9 6 7 10 10 11 12 12 10 12
8 9 7 6 7 9 10 10 9 9 10 10 11 11 11 9 10 11 9 9 6 5 4 4 5 5 7 8 5 5 8 9 8 8 11 10 10 10 10 9 9 10
8 8 8 8 8 8 8 10 11 10 11 10 10 11 11 11 12 12 11 10 8 7 5 5 3 4 6 6 5 7 10 10 9 9 9 9 9 10 10 9 10 11
9 9 9 9 8 8 8 10 12 12 12 12 11 10 10 12 11 13 12 12 11 9 7 5 5 7 8 7 6 7 7 6 8 8 9 9 8 7 8 10 11 12
10 10 11 9 9 9 8 9 9 10 11 11 11 10 11 11 12 13 13 12 13 13 11 8 5 6 7 5 8 10 9 8 8 9 9 10 10 11 11 11 11 10
9 9 9 9 10 9 9 10 9 10 10 11 12 13 13 13 12 11 11 13 12 13 10 8 8 9 6 7 9 10 10 8 10 9 8 10 11 11 11 10 9 10
9 9 10 10 11 9 11 12 11 11 11 11 12 12 13 14 14 16 16 15 13 12 11 8 7 8 9 7 8 10 11 11 12 10 10 11 12 11 10 10 11 12
10 10 10 11 11 10 11 11 11 11 11 11 13 12 14 13 15 15 14 15 16 15 13 11 8 7 9 10 12 12 10 9 9 8 10 11 10 10 10 10 10 9
10 10 11 12 12 11 11 11 10 11 11 13 13 14 14 14 14 13 13 14 13 15 14 14 9 6 8 10 8 6 8 7 8 11 9 8 8 8 8 8 10 10
11 11 12 12 12 12 12 12 12 12 13 12 13 14 14 13 14 14 13 15 15 15 14 15 16 15 17 17 16 13 8 8 8 9 9 7 7 8 8 6 7 8
11 11 11 11 11 11 11 12 12 13 14 14 13 14 14 14 14 15 14 15 16 15 14 15 14 13 12 13 14 15 15 10 7 8 10 6 7 8 8 9 7 6
9 9 9 10 10 10 11 12 12 13 13 12 13 14 14 14 15 15 14 13 14 14 14 11 13 14 15 16 14 14 13 14 11 8 9 6 7 9 8 8 8 9
9 8 9 10 12 12 12 12 12 11 12 12 12 13 11 14 14 14 14 15 16 15 15 10 13 12 12 14 14 15 15 14 13 12 10 9 7 8 9 8 7 7
10 9 10 11 12 13 13 13 13 12 12 12 12 12 13 13 14 15 14 15 15 16 16 10 11 11 21 27 20 13 13 12 12 11 11 9 8 8 7 7 7 9
9 10 10 11 11 12 12 14 15 13 12 12 12 11 11 11 11 15 16 14 15 14 15 12 8 16 28 24 25 24 16 12 11 11 10 10 8 7 8 8 7 8
8 10 10 10 11 13 13 12 12 13 14 13 13 12 11 10 11 12 12 14 13 16 13 13 10 23 26 27 25 25 21 14 10 9 10 10 9 8 8 6 8 8
12 11 11 11 11 11 9 11 12 13 13 13 13 13 12 12 12 11 11 12 14 16 12 12 10 23 26 27 26 26 25 20 9 9 8 9 9 8 8 8 5 3
11 10 11 12 12 11 11 12 12 12 11 10 10 11 12 12 13 11 11 12 12 12 13 13 12 22 27 27 27 28 27 21 10 10 7 8 9 8 7 7 8 8
11 11 11 11 10 10 10 11 11 11 11 10 9 10 11 11 12 13 12 12 12 12 13 12 11 24 26 27 28 29 29 20 10 9 9 9 9 9 8 5 7 8
12 11 12 12 11 12 12 11 10 10 11 10 9 8 9 9 9 10 12 13 13 12 13 14 14 22 26 26 27 29 29 14 11 11 11 10 10 10 9 7 5 4
11 12 11 11 11 11 13 13 11 10 9 8 9 9 9 10 10 10 11 11 13 13 15 13 14 20 25 26 27 29 25 16 15 13 14 13 12 12 12 9 5 3
12 13 13 13 13 14 13 13 12 10 9 8 9 9 9 9 10 10 10 10 12 12 13 13 14 18 24 25 26 27 24 17 14 12 13 12 12 13 13 10 6 8
11 11 11 12 13 12 12 13 13 12 11 10 9 8 8 8 9 9 10 9 10 10 14 13 12 15 23 25 26 26 23 15 14 11 13 13 12 13 14 14 14 13
9 9 9 9 10 9 10 10 10 11 11 10 9 9 9 8 9 9 9 9 9 10 10 11 12 14 19 24 25 25 25 16 11 14 15 14 13 11 10 12 11 11
Wind_Direction
354 356 347 339 335 331 330 324 324 317 311 306 306 308 303 303 293 277 265 183 203 242 238 241 249 255 264 263 285 276 240 235 246 240 231 227 242 234 222 213 210 208
352 356 346 335 330 333 333 331 324 317 308 306 306 304 300 297 299 300 294 249 221 214 222 233 234 232 233 242 224 253 257 248 235 225 229 232 226 225 226 218 215 214
357 357 1 352 344 338 336 330 323 318 314 312 312 315 316 314 308 310 303 284 263 242 229 235 242 230 236 240 248 242 244 243 237 243 249 237 229 226 225 219 215 214
1 355 354 2 357 352 341 331 327 329 335 335 337 337 335 327 323 313 301 295 287 263 255 248 246 241 239 243 228 272 265 255 242 225 237 234 228 224 222 219 220 218
359 352 358 359 5 353 345 337 337 339 334 331 330 336 330 330 329 324 320 313 301 289 267 271 255 271 276 266 233 228 242 242 239 230 231 233 221 220 227 227 221 215
359 359 6 3 354 348 350 349 343 339 335 333 334 329 326 326 325 324 328 329 321 312 308 286 315 315 300 291 289 268 249 251 252 235 233 240 236 219 227 222 220 217
5 8 6 352 348 359 357 354 343 339 336 333 332 333 330 329 327 325 326 325 327 324 321 315 298 285 276 293 287 279 268 256 243 233 229 241 235 228 214 215 219 213
12 8 350 354 4 352 359 354 350 348 344 343 344 337 335 331 330 327 324 324 326 323 316 314 314 297 298 277 272 276 281 268 255 239 247 243 233 236 218 209 206 221
9 9 358 1 2 356 8 358 354 351 351 349 348 347 343 343 345 344 339 331 324 319 317 311 304 314 305 290 272 263 259 269 267 246 243 239 232 230 226 214 206 209
13 2 356 2 5 9 4 3 358 352 355 354 356 352 351 349 350 348 344 342 335 327 323 319 319 310 299 290 281 274 272 274 281 267 247 241 234 233 229 222 219 207
11 5 3 5 6 2 2 2 3 359 359 1 1 358 358 355 353 348 344 341 337 332 334 333 319 311 306 300 294 295 293 289 284 277 254 240 236 238 234 229 222 218
14 11 6 7 3 2 359 1 5 8 3 4 3 2 2 359 357 351 349 343 342 341 343 357 358 1 359 351 339 316 275 260 266 275 264 249 254 240 235 241 243 221
22 12 10 8 1 1 1 1 10 10 6 5 6 5 5 2 359 356 353 352 347 344 354 25 17 12 2 357 349 343 325 303 284 279 276 238 238 250 229 226 233 242
23 18 10 7 3 5 6 6 9 11 8 7 6 8 7 5 4 358 357 355 354 351 349 27 14 14 6 354 349 339 335 328 309 284 273 254 252 250 230 213 213 222
20 16 11 9 8 7 11 11 9 11 11 7 10 10 8 7 7 3 1 358 358 360 350 19 21 10 4 354 343 341 335 333 328 313 296 292 281 274 263 241 202 215
24 22 13 12 14 11 7 6 6 9 7 9 13 11 10 8 7 8 8 2 2 1 356 10 20 6 355 350 349 343 333 331 327 321 309 281 259 253 251 276 258 220
23 22 20 19 17 15 12 11 7 5 5 6 8 12 12 12 9 10 9 8 8 1 1 3 18 2 354 351 347 346 344 333 326 318 309 304 297 281 263 235 255 247
29 23 19 23 21 19 15 13 10 9 6 3 1 4 7 10 17 15 10 9 6 5 4 357 7 1 355 352 348 345 342 332 314 309 309 307 302 295 280 272 252 245
17 20 17 19 21 24 17 17 14 13 10 6 0 360 360 5 6 10 15 13 10 3 359 356 4 360 356 352 350 345 341 335 308 302 296 299 297 292 289 267 242 250
20 20 20 21 16 14 13 19 14 12 11 5 2 4 4 1 360 5 11 18 15 7 1 4 4 1 356 353 350 346 342 335 305 298 292 299 301 290 291 293 279 266
15 12 23 30 22 15 17 20 18 14 10 5 10 7 6 3 3 3 4 8 13 12 6 4 7 5 358 354 352 348 343 334 317 311 315 312 306 295 285 277 266 260
17 16 15 16 20 21 18 16 21 21 10 1 6 12 9 6 5 11 7 7 6 8 5 3 2 5 359 356 354 353 346 342 328 325 321 322 319 315 291 282 283 260
20 20 18 12 16 23 20 15 10 16 22 5 5 10 12 12 8 13 12 6 8 10 8 3 1 2 360 357 357 358 355 352 344 338 340 337 338 330 319 290 279 249
24 26 21 14 16 24 26 16 4 6 12 9 10 7 11 20 11 12 12 11 9 10 11 9 2 1 1 359 360 1 0 357 354 347 339 339 331 341 331 311 274 346
37 28 26 23 21 26 28 18 8 4 4 5 5 9 12 23 19 12 13 12 11 7 11 12 4 1 3 359 1 2 3 360 360 352 350 339 345 354 356 3 3 15
47 28 28 34 30 30 34 28 12 7 1 2 7 8 6 22 25 16 13 11 12 9 9 13 6 2 2 1 2 2 4 4 356 2 0 354 359 354 352 358 358 0